Pella, IA

11:02 AM CDT on April 30, 2017 (GMT -0500)
Pella Municipal

Weather History for KPEA - March, 2013

Change the Weather History Date:

Sunday, March 31, 2013

  Actual Average (KOXV) Record (KOXV)
Temperature  
Mean Temperature 44 °F -  
Max Temperature 54 °F 57 °F 82 °F (1986)
Min Temperature 34 °F 34 °F 15 °F (1987)
Degree Days  
Heating Degree Days 21    
Moisture  
Dew Point 34 °F    
Average Humidity 74    
Maximum Humidity 99    
Minimum Humidity 33    
Precipitation  
Precipitation 0.00 in - - ()
Sea Level Pressure  
Sea Level Pressure 29.94 in    
Wind  
Wind Speed 9 mph (NW)    
Max Wind Speed 26 mph    
Max Gust Speed 34 mph    
Visibility 6 miles    
Events Fog    
Averages and records for this station are not official NWS values.
T = Trace of Precipitation, MM = Missing Value Source: NWS Daily Summary

Daily Weather History Graph

Daily Weather History Graph

Search for Another Location

Airport or City:

Trip Planner

Search our weather history database for the weather conditions in past years. The results will help you decide how hot, cold, wet, or windy it might be!

Date:

Astronomy

Mar. 31, 2013 Rise Set
Actual Time 6:56 AM CDT 7:36 PM CDT
Civil Twilight 6:28 AM CDT 8:04 PM CDT
Nautical Twilight 5:55 AM CDT 8:37 PM CDT
Astronomical Twilight 5:21 AM CDT 9:11 PM CDT
Moon No Moon Rise 9:41 AM CDT (3/31)
Length of Visible Light 13h 35m
Length of Day
12h 40m
Waning Gibbous, 77% of the Moon is Illuminated
Mar 31
Waning Gibbous
Apr 2
Last Quarter
Apr 10
New
Apr 18
First Quarter
Apr 25
Full

Hourly Weather History & Observations

Time (CDT) Temp. Windchill Dew Point Humidity Pressure Visibility Wind Dir Wind Speed Gust Speed Precip Events Conditions
12:15 AM 42.1 °F - 41.2 °F 97% 29.90 in 0.2 mi Calm Calm - N/A Fog Fog
12:35 AM 41.9 °F 40.0 °F 41.0 °F 97% 29.90 in 0.2 mi West 3.5 mph - N/A Fog Fog
12:55 AM 41.9 °F 38.2 °F 41.0 °F 97% 29.90 in 0.2 mi West 5.8 mph - N/A Fog Fog
1:15 AM 41.4 °F 37.6 °F 40.6 °F 97% 29.90 in 0.5 mi WNW 5.8 mph - N/A Fog Fog
1:35 AM 41.0 °F 38.0 °F 40.3 °F 97% 29.91 in 0.2 mi WNW 4.6 mph - N/A Fog Fog
1:55 AM 40.3 °F 38.2 °F 39.6 °F 97% 29.90 in 0.2 mi NW 3.5 mph - N/A Fog Fog
2:15 AM 40.1 °F 38.0 °F 39.2 °F 97% 29.91 in 0.2 mi NW 3.5 mph - N/A Fog Fog
2:35 AM 39.0 °F 36.8 °F 38.3 °F 97% 29.90 in 0.2 mi NW 3.5 mph - N/A Fog Fog
2:55 AM 39.2 °F 35.9 °F 38.5 °F 97% 29.90 in 0.2 mi NW 4.6 mph - N/A Fog Fog
3:15 AM 38.7 °F 36.3 °F 38.1 °F 98% 29.90 in 0.2 mi NW 3.5 mph - N/A Fog Fog
3:35 AM 38.3 °F 34.8 °F 37.8 °F 98% 29.89 in 0.2 mi NNW 4.6 mph - N/A Fog Fog
3:55 AM 36.7 °F 32.0 °F 36.1 °F 98% 29.89 in 0.2 mi NNW 5.8 mph - N/A Fog Fog
4:15 AM 37.4 °F 34.9 °F 36.9 °F 98% 29.89 in 0.8 mi NW 3.5 mph - N/A   Mist
4:35 AM 36.5 °F 31.8 °F 35.8 °F 97% 29.89 in 0.8 mi WNW 5.8 mph - N/A   Mist
4:55 AM 38.3 °F 33.9 °F 37.8 °F 98% 29.89 in 2.5 mi WNW 5.8 mph - N/A   Mist
5:15 AM 38.5 °F 34.1 °F 37.9 °F 98% 29.89 in 3.0 mi WNW 5.8 mph - N/A   Mist
5:35 AM 37.6 °F 33.1 °F 37.0 °F 98% 29.89 in 1.8 mi WNW 5.8 mph - N/A   Mist
5:55 AM 37.0 °F 31.0 °F 36.5 °F 98% 29.91 in 1.5 mi WNW 8.1 mph - N/A   Mist
6:15 AM 37.0 °F 32.4 °F 36.5 °F 98% 29.91 in 3.0 mi WNW 5.8 mph - N/A   Mist
6:35 AM 36.5 °F 31.8 °F 36.0 °F 98% 29.91 in 2.5 mi WNW 5.8 mph - N/A   Mist
6:55 AM 36.3 °F 30.1 °F 35.8 °F 98% 29.91 in 2.0 mi WNW 8.1 mph - N/A   Mist
7:15 AM 36.0 °F 31.1 °F 35.6 °F 99% 29.91 in 1.8 mi WNW 5.8 mph - N/A   Mist
7:35 AM 36.5 °F 31.0 °F 36.0 °F 98% 29.91 in 1.2 mi WNW 6.9 mph - N/A   Mist
7:55 AM 37.6 °F 34.0 °F 37.0 °F 98% 29.91 in 1.0 mi WNW 4.6 mph - N/A   Mist
8:15 AM 39.2 °F 35.0 °F 38.7 °F 98% 29.91 in 1.0 mi WNW 5.8 mph - N/A   Mist
8:35 AM 40.3 °F 35.5 °F 39.9 °F 99% 29.91 in 1.0 mi West 6.9 mph - N/A   Mostly Cloudy
8:55 AM 39.9 °F 33.9 °F 39.4 °F 98% 29.90 in 0.2 mi West 9.2 mph - N/A Fog Fog
9:15 AM 40.6 °F 35.4 °F 40.1 °F 98% 29.90 in 0.2 mi West 8.1 mph - N/A Fog Fog
9:35 AM 40.3 °F 33.9 °F 39.7 °F 98% 29.91 in 0.2 mi West 10.4 mph - N/A Fog Fog
9:55 AM 40.5 °F 33.6 °F 39.9 °F 98% 29.91 in 0.8 mi WNW 11.5 mph - N/A   Overcast
10:15 AM 41.9 °F 35.0 °F 41.2 °F 97% 29.91 in 2.5 mi WNW 12.7 mph 16.1 mph N/A   Overcast
10:35 AM 43.7 °F 36.9 °F 41.0 °F 90% 29.92 in 7.0 mi WNW 13.8 mph 18.4 mph N/A   Mostly Cloudy
10:55 AM 45.7 °F 38.8 °F 40.1 °F 81% 29.92 in 10.0 mi NW 16.1 mph - N/A   Scattered Clouds
11:15 AM 46.6 °F - 39.0 °F 75% 29.92 in 10.0 mi WNW 11.5 mph 21.9 mph N/A   Scattered Clouds
11:35 AM 48.2 °F - 39.4 °F 72% 29.92 in 10.0 mi WNW 13.8 mph 18.4 mph N/A   Scattered Clouds
11:55 AM 50.0 °F - 39.0 °F 66% 29.92 in 10.0 mi NW 16.1 mph 25.3 mph N/A   Scattered Clouds
12:15 PM 50.5 °F - 38.3 °F 63% 29.92 in 10.0 mi WNW 17.3 mph 23.0 mph N/A   Scattered Clouds
12:35 PM 51.4 °F - 36.1 °F 56% 29.91 in 10.0 mi NW 17.3 mph 28.8 mph N/A   Scattered Clouds
12:55 PM 52.3 °F - 32.9 °F 48% 29.91 in 10.0 mi WNW 20.7 mph 29.9 mph N/A   Clear
1:15 PM 53.8 °F - 32.0 °F 44% 29.91 in 10.0 mi WNW 20.7 mph 31.1 mph N/A   Clear
1:35 PM 54.3 °F - 27.0 °F 35% 29.91 in 10.0 mi NW 26.5 mph 33.4 mph N/A   Clear
1:55 PM 53.6 °F - 25.2 °F 33% 29.91 in 10.0 mi WNW 23.0 mph 31.1 mph N/A   Clear
2:15 PM 53.6 °F - 27.9 °F 37% 29.91 in 10.0 mi WNW 23.0 mph 34.5 mph N/A   Clear
2:35 PM 53.1 °F - 27.5 °F 37% 29.92 in 10.0 mi WNW 23.0 mph 31.1 mph N/A   Clear
2:55 PM 52.5 °F - 28.8 °F 40% 29.92 in 10.0 mi WNW 20.7 mph 29.9 mph N/A   Clear
3:15 PM 52.5 °F - 32.2 °F 46% 29.93 in 10.0 mi NW 16.1 mph 28.8 mph N/A   Scattered Clouds
3:35 PM 51.8 °F - 32.2 °F 47% 29.92 in 10.0 mi NW 17.3 mph 26.5 mph N/A   Scattered Clouds
3:55 PM 52.5 °F - 32.4 °F 46% 29.93 in 10.0 mi NW 20.7 mph 26.5 mph N/A   Scattered Clouds
4:15 PM 51.3 °F - 32.7 °F 49% 29.93 in 10.0 mi NW 15.0 mph 26.5 mph N/A   Scattered Clouds
4:35 PM 51.1 °F - 32.2 °F 48% 29.94 in 10.0 mi NW 18.4 mph 26.5 mph N/A   Scattered Clouds
4:55 PM 49.6 °F - 31.5 °F 50% 29.94 in 10.0 mi NW 16.1 mph 21.9 mph N/A   Scattered Clouds
5:15 PM 48.9 °F - 31.3 °F 51% 29.95 in 10.0 mi NW 17.3 mph 26.5 mph N/A   Scattered Clouds
5:35 PM 48.2 °F - 29.8 °F 49% 29.95 in 10.0 mi NW 18.4 mph 25.3 mph N/A   Scattered Clouds
5:55 PM 47.3 °F - 29.8 °F 51% 29.96 in 10.0 mi NW 16.1 mph 24.2 mph N/A   Clear
6:15 PM 45.9 °F 38.5 °F 30.9 °F 56% 29.96 in 10.0 mi NW 18.4 mph 25.3 mph N/A   Scattered Clouds
6:35 PM 45.3 °F 38.1 °F 26.8 °F 48% 29.97 in 10.0 mi WNW 17.3 mph 21.9 mph N/A   Clear
6:55 PM 43.7 °F 37.3 °F 27.5 °F 53% 29.98 in 10.0 mi NW 12.7 mph - N/A   Clear
7:15 PM 43.2 °F 36.2 °F 29.3 °F 58% 29.98 in 10.0 mi NNW 13.8 mph 19.6 mph N/A   Clear
7:35 PM 41.9 °F 35.4 °F 30.0 °F 63% 29.99 in 10.0 mi NNW 11.5 mph - N/A   Clear
8:15 PM 41.0 °F 33.1 °F 28.2 °F 60% 29.99 in 10.0 mi NNW 15.0 mph 18.4 mph N/A   Clear
8:35 PM 40.5 °F 33.2 °F 28.9 °F 64% 30.00 in 10.0 mi NNW 12.7 mph - N/A   Clear
8:55 PM 40.1 °F 33.2 °F 28.4 °F 63% 30.02 in 10.0 mi NNW 11.5 mph 21.9 mph N/A   Clear
9:15 PM 39.7 °F 31.2 °F 28.6 °F 64% 30.03 in 10.0 mi NNW 16.1 mph 20.7 mph N/A   Clear
9:35 PM 39.4 °F 30.1 °F 28.0 °F 64% 30.04 in 10.0 mi NW 18.4 mph 25.3 mph N/A   Clear
10:15 PM 37.9 °F 28.9 °F 24.8 °F 59% 30.06 in 10.0 mi NW 16.1 mph 20.7 mph N/A   Scattered Clouds
10:35 PM 36.9 °F 27.1 °F 22.8 °F 57% 30.07 in 10.0 mi NNW 17.3 mph 23.0 mph N/A   Clear
10:55 PM 36.0 °F 25.6 °F 22.8 °F 59% 30.08 in 10.0 mi NW 18.4 mph 24.2 mph N/A   Clear
11:15 PM 35.6 °F 24.8 °F 23.0 °F 60% 30.08 in 10.0 mi NNW 19.6 mph 25.3 mph N/A   Clear
11:35 PM 34.7 °F 24.7 °F 22.8 °F 62% 30.08 in 10.0 mi NNW 16.1 mph 21.9 mph N/A   Clear
11:55 PM 34.3 °F 24.2 °F 20.8 °F 58% 30.09 in 10.0 mi NW 16.1 mph 23.0 mph N/A   Clear